Portada
METAR-TAF:

METAR-TAF

Aeropuertos :

Aeropuerto de Tetuán-Sania Ramel

Tetuán, Marruecos

latitud: 35-35N, longitud: 005-20W, altitud: 10 m

Observación

El informe se hizo hace 36 minutos, a las 13:00 UTC
Viento 10 kt del este-sureste
Temperatura 16°C
Humedad 63%
Presión 1030 hPa
Visibilidad 10 km o más
Nubes dispersas a una altura de 2600 ft

METAR: GMTN 031300Z 11010KT 9999 SCT026 16/09 Q1030 NOSIG

Hora: 14:36 (13:36 UTC)


TAF: falta

Observaciones y pronósticos meteorológicos de más de 4000 aeropuertos (mensajes METAR y TAF).

Los puntos amarillos y rojos representan las estaciones disponibles.

Ponga el ratón en el punto deseado para ver el nombre de la estación.

Haga clic para ver las observaciones y los pronósticos meteorológicos.

Para cambiar el mapa : haga clic en los botones verdes con una cruz de color negro para hacer un zoom, en el botón verde con un guión para alejar o en las flechas verdes para mapas adyacentes.


METAR-TAF: